Hourly Data Report for October 25, 2017

All times are specified in Local Standard Time (LST). Add 1 hour to adjust for Daylight Saving Time where and when it is observed.

POWELL RIVER
BRITISH COLUMBIA

49°50'04.400" N
124°29'48.500" W
125.00 m
1046392
71720
VOP

Download Data

Hourly Data (October 2017)
Hourly Data Report for October 25, 2017
Temp Definition
°C
Dew Point Temp Definition
°C
Rel Hum Definition
%
Wind Dir Definition
10's deg

Wind Spd Definition
km/h
Visibility Definition
km
Stn Press Definition
kPa
Hmdx Definition


Wind Chill Definition


Weather Definition


TIME
00:00 10.7 9.9 95 LegendMM LegendMM   100.50     LegendNANA
01:00 11.6 10.0 90 LegendMM LegendMM   100.33     LegendNANA
02:00 11.2 9.5 89 LegendMM LegendMM   100.25     LegendNANA
03:00 10.9 9.6 91 LegendMM LegendMM   100.26     LegendNANA
04:00 10.9 9.7 92 LegendMM LegendMM   100.25     LegendNANA
05:00 10.7 9.7 93 LegendMM LegendMM   100.23     LegendNANA
06:00 10.3 9.4 94 LegendMM LegendMM   100.23     LegendNANA
07:00 10.2 9.4 95 LegendMM LegendMM   100.23     LegendNANA
08:00 10.2 9.6 96 LegendMM LegendMM   100.32     LegendNANA
09:00 10.5 9.9 97 LegendMM LegendMM   100.34     LegendNANA
10:00 10.9 9.7 93 LegendMM LegendMM   100.39     LegendNANA
11:00 10.8 8.5 86 LegendMM LegendMM   100.37     LegendNANA
12:00 11.9 8.6 80 LegendMM LegendMM   100.38     LegendNANA
13:00 12.1 7.9 76 LegendMM LegendMM   100.34     LegendNANA
14:00 12.3 8.1 75 LegendMM LegendMM   100.39     LegendNANA
15:00 13.0 7.9 71 LegendMM LegendMM   100.44     LegendNANA
16:00 11.8 8.0 78 LegendMM LegendMM   100.44     LegendNANA
17:00 10.9 8.0 82 LegendMM LegendMM   100.51     LegendNANA
18:00 9.3 7.1 86 LegendMM LegendMM   100.52     LegendNANA
19:00 7.5 6.3 92 LegendMM LegendMM   100.64     LegendNANA
20:00 6.1 5.2 94 LegendMM LegendMM   100.70     LegendNANA
21:00 5.4 4.7 95 LegendMM LegendMM   100.79     LegendNANA
22:00 4.9 4.4 96 LegendMM LegendMM   100.87     LegendNANA
23:00 4.7 4.3 97 LegendMM LegendMM   100.97     LegendNANA

Notes on Data Quality.

Legend

  • E = Estimated
  • M = Missing
  • NA = Not Available
  • ‡ = Partner data that is not subject to review by the National Climate Archives
Date modified: